CW5920 Weather Reports


time (UTC)temp
F
wind
direction
speed
knots
gust
knots
rain 1hr
in
rain 24hr
in
rain mn
in
humidity
%
barometer
mb
20260509015016 72 0.0 0.0 0.00 0.05 0.05 88 1009.0
20260509014016 72 0.0 0.0 0.00 0.05 0.05 88 1008.9
20260509013016 72 0.0 0.0 0.00 0.05 0.05 88 1008.9
20260509012016 73 0.0 0.0 0.00 0.05 0.05 87 1008.8
20260509011016 73 0.0 0.0 0.00 0.05 0.05 87 1008.5
20260509010016 73 0.0 0.0 0.00 0.05 0.05 87 1008.2
20260509005016 73 0.0 0.0 0.00 0.05 0.05 87 1008.1
20260509004016 73 0.0 0.0 0.00 0.05 0.05 86 1008.1
20260509003016 74 135 0.9 2.6 0.00 0.05 0.05 85 1008.3
20260509002016 74 0.0 0.0 0.00 0.05 0.05 85 1008.4
20260509001016 74 135 0.9 3.5 0.00 0.05 0.05 84 1008.4
20260509000016 74 135 0.9 2.6 0.00 0.05 0.05 84 1008.5
20260508235016 74 135 2.6 4.3 0.00 0.05 0.05 84 1008.4
20260508234016 74 113 2.6 6.1 0.00 0.05 0.05 84 1008.5
20260508233016 74 135 0.9 3.5 0.00 0.05 0.05 84 1008.5
20260508232016 74 135 2.6 6.1 0.00 0.05 0.05 84 1008.4
20260508231016 73 135 2.6 7.0 0.00 0.05 0.05 84 1008.3
20260508230016 74 135 4.3 7.0 0.00 0.05 0.05 84 1008.4
20260508225016 73 135 2.6 5.2 0.00 0.05 0.05 84 1008.4
20260508224016 73 113 5.2 7.8 0.00 0.05 0.05 85 1008.4
20260508223036 72 113 5.2 7.8 0.00 0.05 0.05 84 1008.5
20260508222016 72 113 5.2 8.7 0.00 0.05 0.05 85 1008.7
20260508221016 72 90 5.2 8.7 0.00 0.05 0.05 85 1008.7
20260508220016 72 113 6.1 9.6 0.00 0.05 0.05 86 1008.8
20260508215016 71 90 7.0 10.4 0.00 0.05 0.05 87 1008.9
20260508214016 71 113 4.3 7.8 0.00 0.05 0.05 89 1009.1
20260508213016 70 113 3.5 6.1 0.00 0.05 0.05 90 1009.3
20260508212016 69 135 0.9 2.6 0.00 0.05 0.05 90 1009.6
20260508211016 68 0.0 0.0 0.00 0.05 0.05 90 1009.7
20260508210036 68 0.0 0.0 0.01 0.05 0.05 90 1009.9
20260508205016 67 0.0 0.0 0.04 0.05 0.05 90 1010.1
20260508204016 67 0.0 0.9 0.05 0.05 0.05 90 1010.1
20260508203016 66 0.0 3.5 0.05 0.05 0.05 90 1010.1
20260508202036 66 113 1.7 8.7 0.05 0.05 0.05 88 1009.5
20260508201016 67 113 7.8 11.3 0.05 0.05 0.05 87 1009.6
20260508200056 69 90 7.0 11.3 0.04 0.04 0.04 82 1009.4
20260508195016 70 113 5.2 7.0 0.01 0.01 0.01 79 1011.3
20260508194016 71 0.0 4.3 0.00 0.00 0.00 76 1011.5
20260508193016 72 0.0 2.6 0.00 0.00 0.00 75 1011.7
20260508192016 72 135 1.7 7.8 0.00 0.00 0.00 74 1011.6
20260508191016 73 113 3.5 8.7 0.00 0.00 0.00 76 1011.3
20260508190016 72 113 6.1 9.6 0.00 0.00 0.00 78 1011.3
20260508185016 70 135 7.0 10.4 0.00 0.00 0.00 76 1011.5
20260508184016 70 113 7.0 10.4 0.00 0.00 0.00 76 1011.6
20260508183016 70 113 7.8 10.4 0.00 0.00 0.00 75 1011.9
20260508182016 70 113 7.8 11.3 0.00 0.00 0.00 74 1012.1
20260508181016 71 135 6.1 10.4 0.00 0.00 0.00 74 1012.3
20260508180016 71 135 4.3 10.4 0.00 0.00 0.00 73 1012.4
20260508175016 71 113 5.2 9.6 0.00 0.00 0.00 73 1012.3
20260508174016 71 113 5.2 7.8 0.00 0.00 0.00 74 1012.4
20260508173016 71 113 5.2 7.8 0.00 0.00 0.00 75 1012.5
20260508172536 70 90 5.2 9.6 0.00 0.00 0.00 76 1012.5
20260508171516 70 113 5.2 9.6 0.00 0.00 0.00 76 1012.7
20260508170516 69 135 5.2 8.7 0.00 0.00 0.00 76 1013.0
20260508165516 69 113 4.3 7.0 0.00 0.00 0.00 76 1013.2
20260508164536 69 113 6.1 7.8 0.00 0.00 0.00 76 1013.1
20260508163516 69 90 4.3 7.0 0.00 0.00 0.00 77 1013.0
20260508162516 69 90 5.2 9.6 0.00 0.00 0.00 76 1013.2
20260508161536 68 90 4.3 8.7 0.00 0.00 0.00 79 1013.2
20260508160516 67 113 4.3 8.7 0.00 0.00 0.00 80 1013.4
20260508155536 66 113 6.1 8.7 0.00 0.00 0.00 80 1013.6
20260508154516 65 90 5.2 7.8 0.00 0.00 0.00 82 1013.8
20260508153516 65 90 5.2 8.7 0.00 0.00 0.00 82 1013.8
20260508152536 64 113 3.5 6.1 0.00 0.00 0.00 81 1014.1
20260508151516 64 113 4.3 7.0 0.00 0.00 0.00 81 1014.2
20260508150516 64 113 3.5 5.2 0.00 0.00 0.00 81 1014.4
20260508145516 64 135 3.5 5.2 0.00 0.00 0.00 81 1014.3
20260508144516 64 113 4.3 6.1 0.00 0.00 0.00 81 1014.4
20260508143516 64 113 2.6 6.1 0.00 0.00 0.00 81 1014.4
20260508142516 64 113 2.6 4.3 0.00 0.00 0.00 80 1014.1
20260508141536 64 135 1.7 3.5 0.00 0.00 0.00 81 1014.2
20260508140516 64 135 1.7 4.3 0.00 0.00 0.00 81 1014.3
20260508135516 64 135 1.7 3.5 0.00 0.00 0.00 81 1014.4
20260508134516 64 135 2.6 3.5 0.00 0.00 0.00 82 1014.4
20260508133516 64 113 3.5 7.0 0.00 0.00 0.00 84 1014.3
20260508132516 63 90 3.5 7.0 0.00 0.00 0.00 86 1014.4
20260508131536 62 135 1.7 3.5 0.00 0.00 0.00 88 1014.2
20260508130516 62 158 3.5 4.3 0.00 0.00 0.00 89 1014.4
20260508125536 61 203 0.9 2.6 0.00 0.00 0.00 90 1014.4
20260508124536 60 0.0 0.0 0.00 0.00 0.00 91 1014.6
20260508123516 59 0.0 0.0 0.00 0.00 0.00 91 1014.6
20260508122516 59 0.0 0.0 0.00 0.00 0.00 91 1014.6
20260508121536 58 0.0 0.0 0.00 0.00 0.00 91 1014.1
20260508120516 58 0.0 1.7 0.00 0.00 0.00 90 1014.2
20260508115516 58 0.0 1.7 0.00 0.00 0.00 90 1014.3
20260508114556 58 0.0 0.0 0.00 0.00 0.00 89 1014.2
20260508113516 58 0.0 0.0 0.00 0.00 0.00 89 1014.3
20260508112516 58 0.0 0.0 0.00 0.00 0.00 90 1014.5
20260508111516 58 0.0 0.9 0.00 0.00 0.00 90 1014.6
20260508110536 59 0.0 0.0 0.00 0.00 0.00 90 1014.8
20260508105516 58 0.0 1.7 0.00 0.00 0.00 91 1014.4
20260508104516 58 135 0.9 2.6 0.00 0.00 0.00 91 1014.1
20260508103516 58 0.0 1.7 0.00 0.00 0.00 91 1014.2
20260508102516 58 0.0 0.0 0.00 0.00 0.00 92 1014.3
20260508101516 58 0.0 2.6 0.00 0.00 0.00 92 1014.2
20260508100536 58 0.0 0.0 0.00 0.00 0.00 91 1014.2
20260508095516 58 0.0 0.0 0.00 0.00 0.00 91 1014.2
20260508094516 58 0.0 0.0 0.00 0.00 0.00 91 1014.1
20260508093536 58 0.0 0.0 0.00 0.00 0.00 91 1014.2
20260508092556 59 0.0 0.0 0.00 0.00 0.00 91 1014.1
20260508091515 59 0.0 0.0 0.00 0.00 0.00 91 1014.1
20260508090516 59 0.0 0.0 0.00 0.00 0.00 90 1014.2
20260508085537 59 0.0 0.0 0.00 0.00 0.00 90 1014.2
20260508084517 59 0.0 1.7 0.00 0.00 0.00 89 1014.1
20260508083517 59 0.0 0.0 0.00 0.00 0.00 89 1014.2
20260508082517 60 0.0 0.9 0.00 0.00 0.00 89 1014.2
20260508081537 60 0.0 0.9 0.00 0.00 0.00 88 1014.3
20260508080517 61 0.0 0.0 0.00 0.00 0.00 88 1014.6
20260508075537 61 0.0 0.0 0.00 0.00 0.00 88 1014.8
20260508074517 61 0.0 0.0 0.00 0.00 0.00 88 1015.2
20260508073537 61 0.0 0.0 0.00 0.00 0.00 88 1015.5
20260508072517 61 0.0 0.0 0.00 0.00 0.00 88 1015.6
20260508071517 61 0.0 0.0 0.00 0.00 0.00 87 1015.5
20260508070517 60 0.0 0.0 0.00 0.00 0.00 87 1015.4
20260508065516 60 0.0 0.0 0.00 0.00 0.00 87 1015.4
20260508064517 60 0.0 0.0 0.00 0.00 0.00 87 1015.1
20260508063517 61 0.0 0.0 0.00 0.00 0.00 87 1015.3
20260508062537 61 0.0 0.0 0.00 0.00 0.00 87 1015.4
20260508061517 61 0.0 0.0 0.00 0.00 0.00 87 1015.5
20260508060517 61 0.0 1.7 0.00 0.00 0.00 87 1015.4
20260508055517 60 0.0 0.0 0.00 0.00 0.00 86 1015.7
20260508054537 61 0.0 0.0 0.00 0.00 0.00 85 1015.6
20260508053516 61 0.0 0.0 0.00 0.00 0.00 85 1015.7
20260508052517 61 0.0 0.0 0.00 0.00 0.00 85 1015.9
20260508051517 61 0.0 0.0 0.00 0.00 0.00 85 1015.9
20260508050517 61 0.0 0.0 0.00 0.00 0.00 84 1015.9
20260508045516 61 0.0 0.0 0.00 0.00 0.00 84 1015.9
20260508044517 61 0.0 0.0 0.00 0.00 0.00 82 1015.8
20260508043516 61 0.0 0.0 0.00 0.00 0.00 82 1015.5
20260508042516 61 0.0 0.0 0.00 0.00 0.00 81 1015.7
20260508041517 61 0.0 0.0 0.00 0.00 0.00 81 1015.4
20260508040516 61 0.0 0.0 0.00 0.00 0.00 81 1015.7
20260508035516 61 0.0 0.0 0.00 0.00 0.00 82 1015.6
20260508034516 61 0.0 0.0 0.00 0.00 0.00 82 1015.4
20260508033536 61 0.0 0.0 0.00 0.00 0.00 82 1015.3
20260508032517 61 0.0 0.0 0.00 0.00 0.00 81 1015.0
20260508031536 61 0.0 0.0 0.00 0.00 0.00 80 1015.2
20260508030517 62 0.0 0.0 0.00 0.00 0.00 80 1014.6
20260508025537 62 0.0 0.0 0.00 0.00 0.00 80 1014.7
20260508024537 62 0.0 0.0 0.00 0.00 0.00 80 1014.6
20260508023517 62 0.0 0.0 0.00 0.00 0.00 80 1014.5
20260508022516 62 0.0 0.9 0.00 0.00 0.00 81 1014.6
20260508021536 63 0.0 0.9 0.00 0.00 0.00 81 1014.7
20260508020516 63 135 1.7 2.6 0.00 0.00 0.00 80 1014.6
20260508015536 64 0.0 2.6 0.00 0.00 0.00 79 1014.5